Regional Weather Roundup
Issued by NWS Charleston, WV

Home | Current Version | Previous Version | Graphics & Text | Print | Product List | Glossary On
Versions: 1 2 3 4 5 6 7 8 9 10 11 12 13 14 15 16 17 18 19 20 21 22 23 24 25 26 27
000
ASUS41 KRLX 032010
RWRRLX
West Virginia Regional Weather Roundup
National Weather Service Charleston WV
400 PM EDT TUE MAY 03 2016

Note: "fair" indicates few or no clouds below 12,000 feet with no
significant weather and/or obstructions to visibility.

WVZ003-032100-
Northern Panhandle of West Virginia

CITY           SKY/WX    TMP DP  RH WIND       PRES   REMARKS
WHEELING       CLOUDY    58  41  53 NW12      29.82F
$$

WVZ009-032100-
Northwest West Virginia

CITY           SKY/WX    TMP DP  RH WIND       PRES   REMARKS
PARKERSBURG    CLOUDY   N/A N/A N/A SW5       29.86F
$$

WVZ006-032100-
Western West Virginia

CITY           SKY/WX    TMP DP  RH WIND       PRES   REMARKS
HUNTINGTON     CLOUDY    60  55  83 NW5       29.86F
$$

WVZ015-032100-
West Central West Virginia

CITY           SKY/WX    TMP DP  RH WIND       PRES   REMARKS
CHARLESTON     CLOUDY    59  53  80 NW6       29.84F
$$

WVZ022-031-032100-
North Central West Virginia

CITY           SKY/WX    TMP DP  RH WIND       PRES   REMARKS
CLARKSBURG     LGT RAIN  62  50  64 N7        29.79F
MORGANTOWN     CLOUDY    64  46  52 VRB5      29.80F
$$

WVZ025-035-042-045-032100-
Southern West Virginia

CITY           SKY/WX    TMP DP  RH WIND       PRES   REMARKS
BECKLEY        PTSUNNY   61  50  67 W13       29.83F
LOGAN          NOT AVBL
BLUEFIELD      NOT AVBL
LEWISBURG      PTSUNNY   65  49  56 W13G18    29.79F
$$

WVZ047-032100-
Northern Mountains of West Virginia

CITY           SKY/WX    TMP DP  RH WIND       PRES   REMARKS
ELKINS           N/A     65  51  60 NW8       29.79F
$$

WVZ052-032100-
Eastern Panhandle of West Virginia

CITY           SKY/WX    TMP DP  RH WIND       PRES   REMARKS
MARTINSBURG    LGT RAIN  66  57  72 E9        29.73F
PETERSBURG       N/A     73  53  47 NW14      29.72F
$$




USA.gov is the U.S. government's official web portal to all federal, state and local government web resources and services.